TimeICT,TemperatureF,Dew PointF,Humidity,Sea Level PressureIn,VisibilityMPH,Wind Direction,Wind SpeedMPH,Gust SpeedMPH,PrecipitationIn,Events,Conditions,WindDirDegrees,DateUTC
12:00 AM,78.8,75.2,89,29.83,5.0,NNE,3.5,-,N/A,,Mostly Cloudy,30,2012-11-16 17:00:00
7:00 AM,78.8,75.2,89,29.83,5.6,East,3.5,-,N/A,,Mostly Cloudy,90,2012-11-17 00:00:00
7:30 AM,78.8,75.2,89,29.83,5.6,East,6.9,-,N/A,,Mostly Cloudy,90,2012-11-17 00:30:00
8:00 AM,80.6,75.2,84,29.83,5.6,East,8.1,-,N/A,,Mostly Cloudy,90,2012-11-17 01:00:00
8:30 AM,80.6,75.2,84,29.83,6.2,East,8.1,-,N/A,,Mostly Cloudy,100,2012-11-17 01:30:00
9:00 AM,80.6,75.2,84,29.86,6.2,East,8.1,-,N/A,,Mostly Cloudy,100,2012-11-17 02:00:00
9:30 AM,82.4,75.2,79,29.86,6.2,East,8.1,-,N/A,,Mostly Cloudy,100,2012-11-17 02:30:00
10:00 AM,82.4,75.2,79,29.86,6.2,ESE,6.9,-,N/A,,Mostly Cloudy,110,2012-11-17 03:00:00
10:30 AM,82.4,75.2,79,29.86,6.2,East,8.1,-,N/A,,Mostly Cloudy,90,2012-11-17 03:30:00
11:00 AM,84.2,77.0,79,29.83,6.2,East,6.9,-,N/A,,Scattered Clouds,100,2012-11-17 04:00:00
11:30 AM,86.0,75.2,70,29.83,6.2,East,8.1,-,N/A,,Scattered Clouds,100,2012-11-17 04:30:00
12:00 PM,87.8,75.2,66,29.83,6.2,ESE,5.8,-,N/A,,Scattered Clouds,120,2012-11-17 05:00:00
12:30 PM,86.0,75.2,70,29.80,6.2,East,6.9,-,N/A,,Partly Cloudy,100,2012-11-17 05:30:00
1:00 PM,87.8,75.2,66,29.80,6.2,East,8.1,-,N/A,,Partly Cloudy,100,2012-11-17 06:00:00
1:30 PM,86.0,75.2,70,29.77,6.2,SSE,6.9,-,N/A,,Partly Cloudy,160,2012-11-17 06:30:00
2:00 PM,84.2,75.2,74,29.77,6.2,Variable,2.3,-,N/A,,Partly Cloudy,0,2012-11-17 07:00:00
2:30 PM,84.2,75.2,74,29.77,6.2,South,6.9,-,N/A,,Partly Cloudy,170,2012-11-17 07:30:00
3:00 PM,86.0,75.2,70,29.74,6.2,South,5.8,-,N/A,,Scattered Clouds,170,2012-11-17 08:00:00
3:30 PM,86.0,73.4,66,29.74,6.2,SSE,5.8,-,N/A,,Scattered Clouds,160,2012-11-17 08:30:00
4:00 PM,86.0,73.4,66,29.74,6.2,Variable,3.5,-,N/A,,Scattered Clouds,0,2012-11-17 09:00:00
4:30 PM,86.0,73.4,66,29.74,6.2,Calm,Calm,-,N/A,,Scattered Clouds,0,2012-11-17 09:30:00
5:00 PM,84.2,73.4,70,29.77,6.2,Calm,Calm,-,N/A,,Scattered Clouds,0,2012-11-17 10:00:00
5:30 PM,84.2,75.2,74,29.77,6.2,Variable,1.2,-,N/A,,Scattered Clouds,0,2012-11-17 10:30:00
6:00 PM,80.6,75.2,84,29.80,5.6,North,8.1,-,N/A,,Mostly Cloudy,360,2012-11-17 11:00:00
6:30 PM,80.6,73.4,79,29.80,6.2,NNE,11.5,-,N/A,,Scattered Clouds,20,2012-11-17 11:30:00
7:30 PM,78.8,75.2,89,29.80,5.6,NE,6.9,-,N/A,,Scattered Clouds,40,2012-11-17 12:30:00
8:00 PM,78.8,75.2,89,29.80,5.6,NNE,4.6,-,N/A,,Scattered Clouds,20,2012-11-17 13:00:00
8:30 PM,78.8,75.2,89,29.80,5.6,NNE,3.5,-,N/A,,Scattered Clouds,20,2012-11-17 13:30:00
9:00 PM,78.8,75.2,89,29.83,5.6,NNE,4.6,-,N/A,,Scattered Clouds,20,2012-11-17 14:00:00
9:30 PM,78.8,75.2,89,29.83,5.6,Variable,3.5,-,N/A,,Scattered Clouds,0,2012-11-17 14:30:00
10:00 PM,78.8,75.2,89,29.83,5.6,NNE,2.3,-,N/A,,Scattered Clouds,20,2012-11-17 15:00:00
10:30 PM,78.8,75.2,89,29.83,5.6,North,3.5,-,N/A,,Scattered Clouds,350,2012-11-17 15:30:00
11:00 PM,78.8,75.2,89,29.83,5.6,North,1.2,-,N/A,,Scattered Clouds,350,2012-11-17 16:00:00
11:30 PM,78.8,75.2,89,29.80,5.6,North,2.3,-,N/A,,Scattered Clouds,360,2012-11-17 16:30:00